THOR ABLESTAR DEB, 123

Orbit data source: Space-Track

THOR ABLESTAR DEB, 123 is space debris in LEO originally from a launch on Thu, 29 Jun 1961 UTC launched from the Air Force Eastern Test Range (AFETR). Debris objects in space refer to the collection of defunct objects orbiting the Earth. Examples of debris include non-operational satellites, rocket bodies, and fragments generated from explosions, collisions, or faulty payload assembly.

Loading next visibility...
THOR ABLESTAR DEB details
Identifier
123, 1961-015H
Orbit
LEO
Last TLE update1 day ago
Origin
Flag of USUSAF SSD (US)
ManufacturerUnknown
MissionSpacecraft
Bus & MotorUnknown
MassUnknown
Launch date (UTC)
1961-06-29 (64 years ago)
Launch vehicleUnknown
Launch site
Air Force Eastern Test Range (AFETR)
Object type
Payload
Rocket body
Debris
Shape & HBRUnknown
Radar Cross SectionMedium (>0.1 m² and <1 m²)

Expand to show TLE details & history

TLE from 1 day ago
0 THOR ABLESTAR DEB
1 00123U 61015H   25014.43960328  .00001857  00000-0  56604-3 0  9991
2 00123  66.6877  10.6593 0116994 289.0986  69.7479 14.40403448304780
Epoch: 2025-01-14T10:33Z
Definitive object data (Epoch: 2025-01-14T10:33:01.723Z)
Latitude0.00004°
Longitude98.25586°
Altitude731.248 km
Speed7.505 km/s
True Right ascension00h 42m 38s
True Declination0° 00' 00"
Sunlit
Object was in daylight at TLE epoch
Visualization TLE readout
Latitude57.77223°
Longitude-127.41501°
Altitude849.212 km
Speed7.39 km/s
Apparent Right ascension04h 10m 28s
Apparent Declination29° 30' 19"
Sunlit
Object is in full shadow
Visualization observer readout
Local Sidereal Time12:44:53
Azimuth316.875° NNW
Elevation-5.766°
Doppler factor1
Orbital elements
Apogee altitude838.994 km
Perigee altitude672.074 km
Semi-major axis7,133.671 km
Eccentricity0.0116994
Inclination66.6877°
RAAN10.6593°
Arg. of periapsis289.0986°
True anomaly71.01197°
Mean anomaly69.7479°
Eccentric anomaly70.3793°
Mean motion3.60225 °/min
BSTAR0.00056604
Orbital period99.94 mins
Loading maneuver chart data...

THOR ABLESTAR DEB Visibility forecast

Observer location: undefined°, undefined

Span
Click to sort rows by Start time (UTC) header in descending order
Start Az.
Max El. time (UTC)
Max El. Az.
Max El.
End time (UTC)
End Az.
8 mins2025-01-16 01:01:34.683Z205.402° SW2025-01-16 01:04:34.683Z189.384° SSW44.406°2025-01-16 01:09:34.683Z30.134° NE
5 mins2025-01-16 02:46:34.683Z294.141° NW2025-01-16 02:48:34.683Z319.741° NNW16.211°2025-01-16 02:51:34.683Z354.291° N
9 mins2025-01-16 09:46:34.683Z343.871° N2025-01-16 09:50:34.683Z77.877° E40.404°2025-01-16 09:55:34.683Z137.575° SSE
6 mins2025-01-16 11:29:34.683Z289.74° WNW2025-01-16 11:32:34.683Z252.118° W18.465°2025-01-16 11:35:34.683Z215.844° SW
|